Year,Month,Day,Hour,Minute,Value (Times are PST for temperature in C)
2008,11,19,00,00,4.90
2008,11,19,00,01,4.90
2008,11,19,00,02,4.90
2008,11,19,00,03,4.90
2008,11,19,00,04,4.80
2008,11,19,00,05,4.80
2008,11,19,00,06,4.80
2008,11,19,00,07,4.80
2008,11,19,00,08,4.70
2008,11,19,00,09,4.70
2008,11,19,00,10,4.70
2008,11,19,00,11,4.60
2008,11,19,00,12,4.60
2008,11,19,00,13,4.60
2008,11,19,00,14,4.60
2008,11,19,00,15,4.60
2008,11,19,00,16,4.60
2008,11,19,00,17,4.60
2008,11,19,00,18,4.50
2008,11,19,00,19,4.50
2008,11,19,00,20,4.50
2008,11,19,00,21,4.50
2008,11,19,00,22,4.40
2008,11,19,00,23,4.40
2008,11,19,00,24,4.40
2008,11,19,00,25,4.40
2008,11,19,00,26,4.40
2008,11,19,00,27,4.40
2008,11,19,00,28,4.40
2008,11,19,00,29,4.40
2008,11,19,00,30,4.40
2008,11,19,00,31,4.40
2008,11,19,00,32,4.40
2008,11,19,00,33,4.40
2008,11,19,00,34,4.40
2008,11,19,00,35,4.40
2008,11,19,00,36,4.40
2008,11,19,00,37,4.50
2008,11,19,00,38,4.50
2008,11,19,00,39,4.50
2008,11,19,00,40,4.60
2008,11,19,00,41,4.60
2008,11,19,00,42,4.60
2008,11,19,00,43,4.60
2008,11,19,00,44,4.60
2008,11,19,00,45,4.60
2008,11,19,00,46,4.60
2008,11,19,00,47,4.60
2008,11,19,00,48,4.60
2008,11,19,00,49,4.60
2008,11,19,00,50,4.60
2008,11,19,00,51,4.60
2008,11,19,00,52,4.60
2008,11,19,00,53,4.60
2008,11,19,00,54,4.60
2008,11,19,00,55,4.60
2008,11,19,00,56,4.60
2008,11,19,00,57,4.60
2008,11,19,00,58,4.60
2008,11,19,00,59,4.60
2008,11,19,01,00,4.70
2008,11,19,01,01,4.70
2008,11,19,01,02,4.70
2008,11,19,01,03,4.70
2008,11,19,01,04,4.80
2008,11,19,01,05,4.80
2008,11,19,01,06,4.90
2008,11,19,01,07,4.90
2008,11,19,01,08,4.90
2008,11,19,01,09,4.90
2008,11,19,01,10,4.90
2008,11,19,01,11,4.90
2008,11,19,01,12,4.90
2008,11,19,01,13,4.90
2008,11,19,01,14,4.90
2008,11,19,01,15,4.90
2008,11,19,01,16,4.90
2008,11,19,01,17,4.90
2008,11,19,01,18,4.90
2008,11,19,01,19,4.80
2008,11,19,01,20,4.80
2008,11,19,01,21,4.70
2008,11,19,01,22,4.80
2008,11,19,01,23,4.80
2008,11,19,01,24,4.80
2008,11,19,01,25,4.90
2008,11,19,01,26,4.90
2008,11,19,01,27,4.90
2008,11,19,01,28,4.90
2008,11,19,01,29,4.90
2008,11,19,01,30,4.90
2008,11,19,01,31,4.90
2008,11,19,01,32,4.90
2008,11,19,01,33,4.90
2008,11,19,01,34,4.90
2008,11,19,01,35,4.90
2008,11,19,01,36,4.90
2008,11,19,01,37,5.00
2008,11,19,01,38,5.10
2008,11,19,01,39,5.10
2008,11,19,01,40,5.10
2008,11,19,01,41,5.00
2008,11,19,01,42,4.90
2008,11,19,01,43,4.90
2008,11,19,01,44,4.90
2008,11,19,01,45,4.90
2008,11,19,01,46,4.90
2008,11,19,01,47,4.80
2008,11,19,01,48,4.80
2008,11,19,01,49,4.80
2008,11,19,01,50,4.80
2008,11,19,01,51,4.80
2008,11,19,01,52,4.80
2008,11,19,01,53,4.80
2008,11,19,01,54,4.80
2008,11,19,01,55,4.80
2008,11,19,01,56,4.80
2008,11,19,01,57,4.80
2008,11,19,01,58,4.80
2008,11,19,01,59,4.80
2008,11,19,02,00,4.70
2008,11,19,02,01,4.70
2008,11,19,02,02,4.70
2008,11,19,02,03,4.70
2008,11,19,02,04,4.70
2008,11,19,02,05,4.70
2008,11,19,02,06,4.70
2008,11,19,02,07,4.70
2008,11,19,02,08,4.80
2008,11,19,02,09,4.80
2008,11,19,02,10,4.80
2008,11,19,02,11,4.90
2008,11,19,02,12,4.90
2008,11,19,02,13,4.90
2008,11,19,02,14,4.90
2008,11,19,02,15,4.90
2008,11,19,02,16,4.90
2008,11,19,02,17,4.80
2008,11,19,02,18,4.80
2008,11,19,02,19,4.80
2008,11,19,02,20,4.80
2008,11,19,02,21,4.90
2008,11,19,02,22,4.90
2008,11,19,02,23,4.90
2008,11,19,02,24,4.90
2008,11,19,02,25,4.90
2008,11,19,02,26,4.90
2008,11,19,02,27,4.90
2008,11,19,02,28,4.90
2008,11,19,02,29,4.80
2008,11,19,02,30,4.80
2008,11,19,02,31,4.80
2008,11,19,02,32,4.80
2008,11,19,02,33,4.80
2008,11,19,02,34,4.80
2008,11,19,02,35,4.80
2008,11,19,02,36,4.70
2008,11,19,02,37,4.70
2008,11,19,02,38,4.70
2008,11,19,02,39,4.60
2008,11,19,02,40,4.70
2008,11,19,02,41,4.70
2008,11,19,02,42,4.80
2008,11,19,02,43,4.80
2008,11,19,02,44,4.90
2008,11,19,02,45,4.80
2008,11,19,02,46,4.80
2008,11,19,02,47,4.80
2008,11,19,02,48,4.80
2008,11,19,02,49,4.80
2008,11,19,02,50,4.70
2008,11,19,02,51,4.70
2008,11,19,02,52,4.70
2008,11,19,02,53,4.70
2008,11,19,02,54,4.60
2008,11,19,02,55,4.60
2008,11,19,02,56,4.60
2008,11,19,02,57,4.60
2008,11,19,02,58,4.60
2008,11,19,02,59,4.60
2008,11,19,03,00,4.60
2008,11,19,03,01,4.60
2008,11,19,03,02,4.60
2008,11,19,03,03,4.50
2008,11,19,03,04,4.50
2008,11,19,03,05,4.50
2008,11,19,03,06,4.50
2008,11,19,03,07,4.50
2008,11,19,03,08,4.50
2008,11,19,03,09,4.40
2008,11,19,03,10,4.40
2008,11,19,03,11,4.40
2008,11,19,03,12,4.40
2008,11,19,03,13,4.40
2008,11,19,03,14,4.40
2008,11,19,03,15,4.40
2008,11,19,03,16,4.40
2008,11,19,03,17,4.40
2008,11,19,03,18,4.40
2008,11,19,03,19,4.40
2008,11,19,03,20,4.40
2008,11,19,03,21,4.40
2008,11,19,03,22,4.40
2008,11,19,03,23,4.40
2008,11,19,03,24,4.40
2008,11,19,03,25,4.40
2008,11,19,03,26,4.40
2008,11,19,03,27,4.40
2008,11,19,03,28,4.30
2008,11,19,03,29,4.40
2008,11,19,03,30,4.40
2008,11,19,03,31,4.40
2008,11,19,03,32,4.40
2008,11,19,03,33,4.50
2008,11,19,03,34,4.50
2008,11,19,03,35,4.50
2008,11,19,03,36,4.50
2008,11,19,03,37,4.50
2008,11,19,03,38,4.50
2008,11,19,03,39,4.50
2008,11,19,03,40,4.50
2008,11,19,03,41,4.50
2008,11,19,03,42,4.60
2008,11,19,03,43,4.60
2008,11,19,03,44,4.60
2008,11,19,03,45,4.70
2008,11,19,03,46,4.70
2008,11,19,03,47,4.70
2008,11,19,03,48,4.70
2008,11,19,03,49,4.80
2008,11,19,03,50,4.80
2008,11,19,03,51,4.90
2008,11,19,03,52,4.90
2008,11,19,03,53,5.00
2008,11,19,03,54,5.10
2008,11,19,03,55,5.10
2008,11,19,03,56,5.20
2008,11,19,03,57,5.30
2008,11,19,03,58,5.30
2008,11,19,03,59,5.40
2008,11,19,04,00,5.50
2008,11,19,04,01,5.50
2008,11,19,04,02,5.60
2008,11,19,04,03,5.60
2008,11,19,04,04,5.60
2008,11,19,04,05,5.70
2008,11,19,04,06,5.70
2008,11,19,04,07,5.70
2008,11,19,04,08,5.70
2008,11,19,04,09,5.70
2008,11,19,04,10,5.70
2008,11,19,04,11,5.70
2008,11,19,04,12,5.70
2008,11,19,04,13,5.70
2008,11,19,04,14,5.70
2008,11,19,04,15,5.70
2008,11,19,04,16,5.70
2008,11,19,04,17,5.80
2008,11,19,04,18,5.90
2008,11,19,04,19,5.90
2008,11,19,04,20,5.90
2008,11,19,04,21,6.00
2008,11,19,04,22,6.00
2008,11,19,04,23,6.00
2008,11,19,04,24,6.00
2008,11,19,04,25,6.00
2008,11,19,04,26,6.00
2008,11,19,04,27,6.00
2008,11,19,04,28,5.90
2008,11,19,04,29,6.00
2008,11,19,04,30,6.00
2008,11,19,04,31,6.00
2008,11,19,04,32,6.00
2008,11,19,04,33,6.00
2008,11,19,04,34,6.10
2008,11,19,04,35,6.10
2008,11,19,04,36,6.10
2008,11,19,04,37,6.10
2008,11,19,04,38,6.10
2008,11,19,04,39,6.10
2008,11,19,04,40,6.10
2008,11,19,04,41,6.10
2008,11,19,04,42,6.10
2008,11,19,04,43,6.10
2008,11,19,04,44,6.10
2008,11,19,04,45,6.10
2008,11,19,04,46,6.10
2008,11,19,04,47,6.10
2008,11,19,04,48,6.10
2008,11,19,04,49,6.10
2008,11,19,04,50,6.10
2008,11,19,04,51,6.20
2008,11,19,04,52,6.20
2008,11,19,04,53,6.20
2008,11,19,04,54,6.20
2008,11,19,04,55,6.20
2008,11,19,04,56,6.20
2008,11,19,04,57,6.20
2008,11,19,04,58,6.40
2008,11,19,04,59,6.40
2008,11,19,05,00,6.40
2008,11,19,05,01,6.50
2008,11,19,05,02,6.50
2008,11,19,05,03,6.40
2008,11,19,05,04,6.40
2008,11,19,05,05,6.40
2008,11,19,05,06,6.30
2008,11,19,05,07,6.30
2008,11,19,05,08,6.30
2008,11,19,05,09,6.30
2008,11,19,05,10,6.30
2008,11,19,05,11,6.30
2008,11,19,05,12,6.30
2008,11,19,05,13,6.30
2008,11,19,05,14,6.40
2008,11,19,05,15,6.40
2008,11,19,05,16,6.40
2008,11,19,05,17,6.40
2008,11,19,05,18,6.40
2008,11,19,05,19,6.40
2008,11,19,05,20,6.40
2008,11,19,05,21,6.40
2008,11,19,05,22,6.40
2008,11,19,05,23,6.40
2008,11,19,05,24,6.40
2008,11,19,05,25,6.40
2008,11,19,05,26,6.40
2008,11,19,05,27,6.40
2008,11,19,05,28,6.40
2008,11,19,05,29,6.40
2008,11,19,05,30,6.40
2008,11,19,05,31,6.40
2008,11,19,05,32,6.50
2008,11,19,05,33,6.60
2008,11,19,05,34,6.60
2008,11,19,05,35,6.60
2008,11,19,05,36,6.50
2008,11,19,05,37,6.40
2008,11,19,05,38,6.40
2008,11,19,05,39,6.40
2008,11,19,05,40,6.40
2008,11,19,05,41,6.40
2008,11,19,05,42,6.40
2008,11,19,05,43,6.40
2008,11,19,05,44,6.40
2008,11,19,05,45,6.40
2008,11,19,05,46,6.40
2008,11,19,05,47,6.40
2008,11,19,05,48,6.40
2008,11,19,05,49,6.40
2008,11,19,05,50,6.50
2008,11,19,05,51,6.60
2008,11,19,05,52,6.60
2008,11,19,05,53,6.60
2008,11,19,05,54,6.60
2008,11,19,05,55,6.60
2008,11,19,05,56,6.70
2008,11,19,05,57,6.70
2008,11,19,05,58,6.60
2008,11,19,05,59,6.60
2008,11,19,06,00,6.60
2008,11,19,06,01,6.60
2008,11,19,06,02,6.50
2008,11,19,06,03,6.40
2008,11,19,06,04,6.40
2008,11,19,06,05,6.40
2008,11,19,06,06,6.40
2008,11,19,06,07,6.40
2008,11,19,06,08,6.40
2008,11,19,06,09,6.40
2008,11,19,06,10,6.50
2008,11,19,06,11,6.60
2008,11,19,06,12,6.60
2008,11,19,06,13,6.60
2008,11,19,06,14,6.60
2008,11,19,06,15,6.60
2008,11,19,06,16,6.60
2008,11,19,06,17,6.60
2008,11,19,06,18,6.60
2008,11,19,06,19,6.60
2008,11,19,06,20,6.60
2008,11,19,06,21,6.60
2008,11,19,06,22,6.60
2008,11,19,06,23,6.60
2008,11,19,06,24,6.50
2008,11,19,06,25,6.40
2008,11,19,06,26,6.40
2008,11,19,06,27,6.50
2008,11,19,06,28,6.60
2008,11,19,06,29,6.60
2008,11,19,06,30,6.60
2008,11,19,06,31,6.60
2008,11,19,06,32,6.60
2008,11,19,06,33,6.40
2008,11,19,06,34,6.40
2008,11,19,06,35,6.50
2008,11,19,06,36,6.60
2008,11,19,06,37,6.60
2008,11,19,06,38,6.60
2008,11,19,06,39,6.50
2008,11,19,06,40,6.50
2008,11,19,06,41,6.60
2008,11,19,06,42,6.60
2008,11,19,06,43,6.60
2008,11,19,06,44,6.60
2008,11,19,06,45,6.60
2008,11,19,06,46,6.60
2008,11,19,06,47,6.60
2008,11,19,06,48,6.60
2008,11,19,06,49,6.60
2008,11,19,06,50,6.60
2008,11,19,06,51,6.60
2008,11,19,06,52,6.60
2008,11,19,06,53,6.60
2008,11,19,06,54,6.60
2008,11,19,06,55,6.60
2008,11,19,06,56,6.60
2008,11,19,06,57,6.60
2008,11,19,06,58,6.60
2008,11,19,06,59,6.60
2008,11,19,07,00,6.60
2008,11,19,07,01,6.60
2008,11,19,07,02,6.60
2008,11,19,07,03,6.60
2008,11,19,07,04,6.60
2008,11,19,07,05,6.60
2008,11,19,07,06,6.60
2008,11,19,07,07,6.70
2008,11,19,07,08,6.70
2008,11,19,07,09,6.60
2008,11,19,07,10,6.60
2008,11,19,07,11,6.60
2008,11,19,07,12,6.60
2008,11,19,07,13,6.60
2008,11,19,07,14,6.60
2008,11,19,07,15,6.60
2008,11,19,07,16,6.60
2008,11,19,07,17,6.60
2008,11,19,07,18,6.60
2008,11,19,07,19,6.60
2008,11,19,07,20,6.60
2008,11,19,07,21,6.60
2008,11,19,07,22,6.60
2008,11,19,07,23,6.60
2008,11,19,07,24,6.60
2008,11,19,07,25,6.60
2008,11,19,07,26,6.40
2008,11,19,07,27,6.50
2008,11,19,07,28,6.60
2008,11,19,07,29,6.60
2008,11,19,07,30,6.60
2008,11,19,07,31,6.60
2008,11,19,07,32,6.60
2008,11,19,07,33,6.60
2008,11,19,07,34,6.60
2008,11,19,07,35,6.60
2008,11,19,07,36,6.60
2008,11,19,07,37,6.60
2008,11,19,07,38,6.60
2008,11,19,07,39,6.60
2008,11,19,07,40,6.60
2008,11,19,07,41,6.60
2008,11,19,07,42,6.60
2008,11,19,07,43,6.60
2008,11,19,07,44,6.60
2008,11,19,07,45,6.60
2008,11,19,07,46,6.70
2008,11,19,07,47,6.70
2008,11,19,07,48,6.80
2008,11,19,07,49,6.70
2008,11,19,07,50,6.70
2008,11,19,07,51,6.70
2008,11,19,07,52,6.70
2008,11,19,07,53,6.70
2008,11,19,07,54,6.70
2008,11,19,07,55,6.70
2008,11,19,07,56,6.70
2008,11,19,07,57,6.70
2008,11,19,07,58,6.70
2008,11,19,07,59,6.70
2008,11,19,08,00,6.70
2008,11,19,08,01,6.80
2008,11,19,08,02,6.80
2008,11,19,08,03,6.80
2008,11,19,08,04,6.80
2008,11,19,08,05,6.80
2008,11,19,08,06,6.80
2008,11,19,08,07,6.80
2008,11,19,08,08,6.80
2008,11,19,08,09,6.80
2008,11,19,08,10,6.80
2008,11,19,08,11,6.80
2008,11,19,08,12,6.80
2008,11,19,08,13,6.80
2008,11,19,08,14,6.80
2008,11,19,08,15,6.80
2008,11,19,08,16,6.80
2008,11,19,08,17,6.90
2008,11,19,08,18,6.90
2008,11,19,08,19,6.90
2008,11,19,08,20,7.00
2008,11,19,08,21,7.00
2008,11,19,08,22,7.00
2008,11,19,08,23,7.10
2008,11,19,08,24,7.10
2008,11,19,08,25,7.10
2008,11,19,08,26,7.00
2008,11,19,08,27,7.00
2008,11,19,08,28,7.00
2008,11,19,08,29,7.10
2008,11,19,08,30,7.10
2008,11,19,08,31,7.10
2008,11,19,08,32,7.10
2008,11,19,08,33,7.20
2008,11,19,08,34,7.20
2008,11,19,08,35,7.20
2008,11,19,08,36,7.30
2008,11,19,08,37,7.30
2008,11,19,08,38,7.30
2008,11,19,08,39,7.40
2008,11,19,08,40,7.40
2008,11,19,08,41,7.40
2008,11,19,08,42,7.50
2008,11,19,08,43,7.50
2008,11,19,08,44,7.50
2008,11,19,08,45,7.50
2008,11,19,08,46,7.50
2008,11,19,08,47,7.60
2008,11,19,08,48,7.60
2008,11,19,08,49,7.70
2008,11,19,08,50,7.70
2008,11,19,08,51,7.70
2008,11,19,08,52,7.70
2008,11,19,08,53,7.70
2008,11,19,08,54,7.80
2008,11,19,08,55,7.80
2008,11,19,08,56,7.80
2008,11,19,08,57,7.80
2008,11,19,08,58,7.90
2008,11,19,08,59,7.90
2008,11,19,09,00,7.90
2008,11,19,09,01,7.90
2008,11,19,09,02,7.90
2008,11,19,09,03,7.90
2008,11,19,09,04,8.00
2008,11,19,09,05,8.00
2008,11,19,09,06,8.00
2008,11,19,09,07,8.10
2008,11,19,09,08,8.10
2008,11,19,09,09,8.20
2008,11,19,09,10,8.20
2008,11,19,09,11,8.20
2008,11,19,09,12,8.20
2008,11,19,09,13,8.20
2008,11,19,09,14,8.20
2008,11,19,09,15,8.20
2008,11,19,09,16,8.20
2008,11,19,09,17,8.20
2008,11,19,09,18,8.20
2008,11,19,09,19,8.30
2008,11,19,09,20,8.30
2008,11,19,09,21,8.30
2008,11,19,09,22,8.30
2008,11,19,09,23,8.30
2008,11,19,09,24,8.40
2008,11,19,09,25,8.40
2008,11,19,09,26,8.40
2008,11,19,09,27,8.50
2008,11,19,09,28,8.50
2008,11,19,09,29,8.60
2008,11,19,09,30,8.60
2008,11,19,09,31,8.60
2008,11,19,09,32,8.70
2008,11,19,09,33,8.70
2008,11,19,09,34,8.70
2008,11,19,09,35,8.70
2008,11,19,09,36,8.70
2008,11,19,09,37,8.70
2008,11,19,09,38,8.70
2008,11,19,09,39,8.80
2008,11,19,09,40,8.80
2008,11,19,09,41,8.80
2008,11,19,09,42,8.80
2008,11,19,09,43,8.90
2008,11,19,09,44,8.90
2008,11,19,09,45,8.90
2008,11,19,09,46,8.90
2008,11,19,09,47,9.00
2008,11,19,09,48,9.00
2008,11,19,09,49,9.00
2008,11,19,09,50,9.00
2008,11,19,09,51,9.00
2008,11,19,09,52,9.00
2008,11,19,09,53,9.10
2008,11,19,09,54,9.10
2008,11,19,09,55,9.10
2008,11,19,09,56,9.10
2008,11,19,09,57,9.10
2008,11,19,09,58,9.10
2008,11,19,09,59,9.10
2008,11,19,10,00,9.20
2008,11,19,10,01,9.20
2008,11,19,10,02,9.20
2008,11,19,10,03,9.20
2008,11,19,10,04,9.20
2008,11,19,10,05,9.30
2008,11,19,10,06,9.30
2008,11,19,10,07,9.30
2008,11,19,10,08,9.30
2008,11,19,10,09,9.30
2008,11,19,10,10,9.40
2008,11,19,10,11,9.40
2008,11,19,10,12,9.40
2008,11,19,10,13,9.50
2008,11,19,10,14,9.50
2008,11,19,10,15,9.50
2008,11,19,10,16,9.50
2008,11,19,10,17,9.50
2008,11,19,10,18,9.50
2008,11,19,10,19,9.60
2008,11,19,10,20,9.60
2008,11,19,10,21,9.60
2008,11,19,10,22,9.60
2008,11,19,10,23,9.70
2008,11,19,10,24,9.70
2008,11,19,10,25,9.70
2008,11,19,10,26,9.70
2008,11,19,10,27,9.70
2008,11,19,10,28,9.70
2008,11,19,10,29,9.70
2008,11,19,10,30,9.80
2008,11,19,10,31,9.80
2008,11,19,10,32,9.80
2008,11,19,10,33,9.90
2008,11,19,10,34,9.90
2008,11,19,10,35,9.90
2008,11,19,10,36,9.90
2008,11,19,10,37,9.90
2008,11,19,10,38,9.90
2008,11,19,10,39,9.90
2008,11,19,10,40,9.90
2008,11,19,10,41,9.90
2008,11,19,10,42,9.90
2008,11,19,10,43,9.90
2008,11,19,10,44,10.00
2008,11,19,10,45,10.10
2008,11,19,10,46,10.10
2008,11,19,10,47,10.10
2008,11,19,10,48,10.10
2008,11,19,10,49,10.10
2008,11,19,10,50,10.10
2008,11,19,10,51,10.20
2008,11,19,10,52,10.20
2008,11,19,10,53,10.20
2008,11,19,10,54,10.20
2008,11,19,10,55,10.30
2008,11,19,10,56,10.30
2008,11,19,10,57,10.40
2008,11,19,10,58,10.40
2008,11,19,10,59,10.40
2008,11,19,11,00,10.40
2008,11,19,11,01,10.40
2008,11,19,11,02,10.40
2008,11,19,11,03,10.40
2008,11,19,11,04,10.40
2008,11,19,11,05,10.50
2008,11,19,11,06,10.60
2008,11,19,11,07,10.60
2008,11,19,11,08,10.60
2008,11,19,11,09,10.60
2008,11,19,11,10,10.60
2008,11,19,11,11,10.60
2008,11,19,11,12,10.60
2008,11,19,11,13,10.60
2008,11,19,11,14,10.70
2008,11,19,11,15,10.70
2008,11,19,11,16,10.70
2008,11,19,11,17,10.70
2008,11,19,11,18,10.70
2008,11,19,11,19,10.70
2008,11,19,11,20,10.70
2008,11,19,11,21,10.70
2008,11,19,11,22,10.70
2008,11,19,11,23,10.70
2008,11,19,11,24,10.70
2008,11,19,11,25,10.70
2008,11,19,11,26,10.70
2008,11,19,11,27,10.60
2008,11,19,11,28,10.60
2008,11,19,11,29,10.60
2008,11,19,11,30,10.60
2008,11,19,11,31,10.70
2008,11,19,11,32,10.70
2008,11,19,11,33,10.80
2008,11,19,11,34,10.80
2008,11,19,11,35,10.80
2008,11,19,11,36,10.80
2008,11,19,11,37,10.80
2008,11,19,11,38,10.80
2008,11,19,11,39,10.80
2008,11,19,11,40,10.90
2008,11,19,11,41,10.90
2008,11,19,11,42,10.90
2008,11,19,11,43,10.90
2008,11,19,11,44,10.90
2008,11,19,11,45,10.90
2008,11,19,11,46,10.90
2008,11,19,11,47,10.90
2008,11,19,11,48,10.90
2008,11,19,11,49,10.90
2008,11,19,11,50,10.90
2008,11,19,11,51,10.90
2008,11,19,11,52,10.90
2008,11,19,11,53,10.90
2008,11,19,11,54,10.90
2008,11,19,11,55,10.90
2008,11,19,11,56,10.90
2008,11,19,11,57,10.90
2008,11,19,11,58,10.90
2008,11,19,11,59,10.90
2008,11,19,12,00,11.00
2008,11,19,12,01,11.10
2008,11,19,12,02,11.10
2008,11,19,12,03,11.10
2008,11,19,12,04,11.10
2008,11,19,12,05,11.10
2008,11,19,12,06,11.10
2008,11,19,12,07,11.10
2008,11,19,12,08,11.10
2008,11,19,12,09,11.10
2008,11,19,12,10,11.10
2008,11,19,12,11,11.10
2008,11,19,12,12,11.20
2008,11,19,12,13,11.20
2008,11,19,12,14,11.20
2008,11,19,12,15,11.20
2008,11,19,12,16,11.20
2008,11,19,12,17,11.20
2008,11,19,12,18,11.10
2008,11,19,12,19,11.10
2008,11,19,12,20,11.10
2008,11,19,12,21,11.10
2008,11,19,12,22,11.10
2008,11,19,12,23,11.10
2008,11,19,12,24,11.10
2008,11,19,12,25,11.10
2008,11,19,12,26,11.20
2008,11,19,12,27,11.20
2008,11,19,12,28,11.20
2008,11,19,12,29,11.20
2008,11,19,12,30,11.20
2008,11,19,12,31,11.10
2008,11,19,12,32,11.10
2008,11,19,12,33,11.10
2008,11,19,12,34,11.20
2008,11,19,12,35,11.20
2008,11,19,12,36,11.20
2008,11,19,12,37,11.20
2008,11,19,12,38,11.20
2008,11,19,12,39,11.30
2008,11,19,12,40,11.20
2008,11,19,12,41,11.20
2008,11,19,12,42,11.20
2008,11,19,12,43,11.20
2008,11,19,12,44,11.20
2008,11,19,12,45,11.30
2008,11,19,12,46,11.30
2008,11,19,12,47,11.20
2008,11,19,12,48,11.20
2008,11,19,12,49,11.30
2008,11,19,12,50,11.30
2008,11,19,12,51,11.30
2008,11,19,12,52,11.30
2008,11,19,12,53,11.30
2008,11,19,12,54,11.30
2008,11,19,12,55,11.30
2008,11,19,12,56,11.30
2008,11,19,12,57,11.30
2008,11,19,12,58,11.30
2008,11,19,12,59,11.40
2008,11,19,13,00,11.40
2008,11,19,13,01,11.40
2008,11,19,13,02,11.40
2008,11,19,13,03,11.40
2008,11,19,13,04,11.40
2008,11,19,13,05,11.40
2008,11,19,13,06,11.40
2008,11,19,13,07,11.40
2008,11,19,13,08,11.40
2008,11,19,13,09,11.40
2008,11,19,13,10,11.40
2008,11,19,13,11,11.40
2008,11,19,13,12,11.40
2008,11,19,13,13,11.40
2008,11,19,13,14,11.40
2008,11,19,13,15,11.40
2008,11,19,13,16,11.40
2008,11,19,13,17,11.40
2008,11,19,13,18,11.50
2008,11,19,13,19,11.60
2008,11,19,13,20,11.60
2008,11,19,13,21,11.60
2008,11,19,13,22,11.60
2008,11,19,13,23,11.60
2008,11,19,13,24,11.60
2008,11,19,13,25,11.60
2008,11,19,13,26,11.60
2008,11,19,13,27,11.50
2008,11,19,13,28,11.40
2008,11,19,13,29,11.40
2008,11,19,13,30,11.40
2008,11,19,13,31,11.40
2008,11,19,13,32,11.40
2008,11,19,13,33,11.40
2008,11,19,13,34,11.40
2008,11,19,13,35,11.40
2008,11,19,13,36,11.40
2008,11,19,13,37,11.40
2008,11,19,13,38,11.40
2008,11,19,13,39,11.40
2008,11,19,13,40,11.40
2008,11,19,13,41,11.40
2008,11,19,13,42,11.40
2008,11,19,13,43,11.40
2008,11,19,13,44,11.40
2008,11,19,13,45,11.40
2008,11,19,13,46,11.40
2008,11,19,13,47,11.40
2008,11,19,13,48,11.40
2008,11,19,13,49,11.40
2008,11,19,13,50,11.40
2008,11,19,13,51,11.40
2008,11,19,13,52,11.40
2008,11,19,13,53,11.40
2008,11,19,13,54,11.40
2008,11,19,13,55,11.40
2008,11,19,13,56,11.40
2008,11,19,13,57,11.40
2008,11,19,13,58,11.40
2008,11,19,13,59,11.40
2008,11,19,14,00,11.40
2008,11,19,14,01,11.40
2008,11,19,14,02,11.40
2008,11,19,14,03,11.40
2008,11,19,14,04,11.40
2008,11,19,14,05,11.40
2008,11,19,14,06,11.50
2008,11,19,14,07,11.60
2008,11,19,14,08,11.60
2008,11,19,14,09,11.60
2008,11,19,14,10,11.60
2008,11,19,14,11,11.60
2008,11,19,14,12,11.60
2008,11,19,14,13,11.60
2008,11,19,14,14,11.60
2008,11,19,14,15,11.60
2008,11,19,14,16,11.60
2008,11,19,14,17,11.60
2008,11,19,14,18,11.60
2008,11,19,14,19,11.60
2008,11,19,14,20,11.60
2008,11,19,14,21,11.60
2008,11,19,14,22,11.60
2008,11,19,14,23,11.60
2008,11,19,14,24,11.60
2008,11,19,14,25,11.60
2008,11,19,14,26,11.60
2008,11,19,14,27,11.60
2008,11,19,14,28,11.60
2008,11,19,14,29,11.60
2008,11,19,14,30,11.60
2008,11,19,14,31,11.60
2008,11,19,14,32,11.60
2008,11,19,14,33,11.60
2008,11,19,14,34,11.60
2008,11,19,14,35,11.60
2008,11,19,14,36,11.60
2008,11,19,14,37,11.60
2008,11,19,14,38,11.50
2008,11,19,14,39,11.40
2008,11,19,14,40,11.40
2008,11,19,14,41,11.40
2008,11,19,14,42,11.40
2008,11,19,14,43,11.40
2008,11,19,14,44,11.40
2008,11,19,14,45,11.40
2008,11,19,14,46,11.40
2008,11,19,14,47,11.40
2008,11,19,14,48,11.40
2008,11,19,14,49,11.40
2008,11,19,14,50,11.40
2008,11,19,14,51,11.40
2008,11,19,14,52,11.40
2008,11,19,14,53,11.40
2008,11,19,14,54,11.40
2008,11,19,14,55,11.40
2008,11,19,14,56,11.40
2008,11,19,14,57,11.40
2008,11,19,14,58,11.30
2008,11,19,14,59,11.30
2008,11,19,15,00,11.20
2008,11,19,15,01,11.20
2008,11,19,15,02,11.20
2008,11,19,15,03,11.20
2008,11,19,15,04,11.20
2008,11,19,15,05,11.10
2008,11,19,15,06,11.10
2008,11,19,15,07,11.10
2008,11,19,15,08,11.10
2008,11,19,15,09,11.10
2008,11,19,15,10,11.10
2008,11,19,15,11,11.10
2008,11,19,15,12,11.10
2008,11,19,15,13,11.10
2008,11,19,15,14,11.10
2008,11,19,15,15,11.00
2008,11,19,15,16,10.90
2008,11,19,15,17,10.90
2008,11,19,15,18,10.80
2008,11,19,15,19,10.80
2008,11,19,15,20,10.80
2008,11,19,15,21,10.80
2008,11,19,15,22,10.80
2008,11,19,15,23,10.80
2008,11,19,15,24,10.80
2008,11,19,15,25,10.80
2008,11,19,15,26,10.70
2008,11,19,15,27,10.70
2008,11,19,15,28,10.70
2008,11,19,15,29,10.70
2008,11,19,15,30,10.70
2008,11,19,15,31,10.70
2008,11,19,15,32,10.70
2008,11,19,15,33,10.70
2008,11,19,15,34,10.70
2008,11,19,15,35,10.70
2008,11,19,15,36,10.70
2008,11,19,15,37,10.60
2008,11,19,15,38,10.60
2008,11,19,15,39,10.60
2008,11,19,15,40,10.60
2008,11,19,15,41,10.60
2008,11,19,15,42,10.60
2008,11,19,15,43,10.60
2008,11,19,15,44,10.60
2008,11,19,15,45,10.60
2008,11,19,15,46,10.60
2008,11,19,15,47,10.60
2008,11,19,15,48,10.60
2008,11,19,15,49,10.60
2008,11,19,15,50,10.50
2008,11,19,15,51,10.40
2008,11,19,15,52,10.40
2008,11,19,15,53,10.40
2008,11,19,15,54,10.40
2008,11,19,15,55,10.40
2008,11,19,15,56,10.30
2008,11,19,15,57,10.30
2008,11,19,15,58,10.30
2008,11,19,15,59,10.30
2008,11,19,16,00,10.30
2008,11,19,16,01,10.30
2008,11,19,16,02,10.30
2008,11,19,16,03,10.30
2008,11,19,16,04,10.30
2008,11,19,16,05,10.30
2008,11,19,16,06,10.30
2008,11,19,16,07,10.30
2008,11,19,16,08,10.30
2008,11,19,16,09,10.20
2008,11,19,16,10,10.20
2008,11,19,16,11,10.10
2008,11,19,16,12,10.10
2008,11,19,16,13,10.10
2008,11,19,16,14,10.10
2008,11,19,16,15,10.00
2008,11,19,16,16,9.90
2008,11,19,16,17,9.90
2008,11,19,16,18,9.90
2008,11,19,16,19,9.80
2008,11,19,16,20,9.90
2008,11,19,16,21,9.90
2008,11,19,16,22,9.90
2008,11,19,16,23,9.90
2008,11,19,16,24,9.90
2008,11,19,16,25,9.90
2008,11,19,16,26,9.80
2008,11,19,16,27,9.80
2008,11,19,16,28,9.80
2008,11,19,16,29,9.70
2008,11,19,16,30,9.70
2008,11,19,16,31,9.70
2008,11,19,16,32,9.80
2008,11,19,16,33,9.80
2008,11,19,16,34,9.80
2008,11,19,16,35,9.80
2008,11,19,16,36,9.70
2008,11,19,16,37,9.80
2008,11,19,16,38,9.80
2008,11,19,16,39,9.80
2008,11,19,16,40,9.80
2008,11,19,16,41,9.80
2008,11,19,16,42,9.80
2008,11,19,16,43,9.80
2008,11,19,16,44,9.80
2008,11,19,16,45,9.80
2008,11,19,16,46,9.80
2008,11,19,16,47,9.80
2008,11,19,16,48,9.70
2008,11,19,16,49,9.80
2008,11,19,16,50,9.80
2008,11,19,16,51,9.80
2008,11,19,16,52,9.80
2008,11,19,16,53,9.70
2008,11,19,16,54,9.70
2008,11,19,16,55,9.70
2008,11,19,16,56,9.70
2008,11,19,16,57,9.70
2008,11,19,16,58,9.70
2008,11,19,16,59,9.70
2008,11,19,17,00,9.70
2008,11,19,17,01,9.70
2008,11,19,17,02,9.70
2008,11,19,17,03,9.70
2008,11,19,17,04,9.70
2008,11,19,17,05,9.60
2008,11,19,17,06,9.60
2008,11,19,17,07,9.50
2008,11,19,17,08,9.50
2008,11,19,17,09,9.50
2008,11,19,17,10,9.50
2008,11,19,17,11,9.60
2008,11,19,17,12,9.60
2008,11,19,17,13,9.60
2008,11,19,17,14,9.60
2008,11,19,17,15,9.60
2008,11,19,17,16,9.50
2008,11,19,17,17,9.50
2008,11,19,17,18,9.50
2008,11,19,17,19,9.50
2008,11,19,17,20,9.50
2008,11,19,17,21,9.50
2008,11,19,17,22,9.40
2008,11,19,17,23,9.40
2008,11,19,17,24,9.50
2008,11,19,17,25,9.50
2008,11,19,17,26,9.50
2008,11,19,17,27,9.50
2008,11,19,17,28,9.60
2008,11,19,17,29,9.60
2008,11,19,17,30,9.70
2008,11,19,17,31,9.70
2008,11,19,17,32,9.70
2008,11,19,17,33,9.70
2008,11,19,17,34,9.70
2008,11,19,17,35,9.80
2008,11,19,17,36,9.80
2008,11,19,17,37,9.80
2008,11,19,17,38,9.80
2008,11,19,17,39,9.80
2008,11,19,17,40,9.80
2008,11,19,17,41,9.70
2008,11,19,17,42,9.70
2008,11,19,17,43,9.70
2008,11,19,17,44,9.70
2008,11,19,17,45,9.70
2008,11,19,17,46,9.70
2008,11,19,17,47,9.70
2008,11,19,17,48,9.70
2008,11,19,17,49,9.70
2008,11,19,17,50,9.70
2008,11,19,17,51,9.70